| time (UTC) | temp F | wind direction | speed MPH | gust MPH | rain 1hr in | rain 24hr in | rain mn in | humidity % | barometer mb |
| 20260831024602 | 72 | 312 | 5.0 | 8.0 | 0.00 | 0.11 | 0.11 | 1 | 998.7 |
| 20260831023056 | 72 | 325 | 3.0 | 7.0 | 0.00 | 0.11 | 0.11 | 1 | 998.3 |
| 20260831021553 | 72 | 321 | 1.0 | 3.0 | 0.00 | 0.11 | 0.11 | 1 | 997.8 |
| 20260831020049 | 73 | 321 | 0.0 | 0.0 | 0.00 | 0.11 | 0.11 | 1 | 997.4 |
| 20260831014544 | 73 | 321 | 0.0 | 1.0 | 0.00 | 0.11 | 0.11 | 1 | 997.3 |
| 20260831013052 | 74 | 321 | 1.0 | 4.0 | 0.00 | 0.11 | 0.11 | 1 | 997.1 |
| 20260831011536 | 75 | 319 | 2.0 | 3.0 | 0.00 | 0.11 | 0.11 | 1 | 996.7 |
| 20260831010031 | 77 | 39 | 0.0 | 1.0 | 0.00 | 0.11 | 0.11 | 23 | 995.8 |
| 20260831004526 | 78 | 40 | 0.0 | 2.0 | 0.00 | 0.12 | 0.11 | 40 | 995.4 |
| 20260831003121 | 79 | 37 | 1.0 | 3.0 | 0.00 | 0.12 | 0.11 | 53 | 995.6 |
| 20260831001524 | 79 | 37 | 1.0 | 3.0 | 0.00 | 0.12 | 0.11 | 56 | 995.9 |
| 20260831000014 | 80 | 34 | 2.0 | 5.0 | 0.00 | 0.12 | 0.11 | 54 | 996.2 |
| 20260830234508 | 80 | 49 | 2.0 | 3.0 | 0.00 | 0.12 | 0.11 | 54 | 996.2 |
| 20260830233004 | 79 | 36 | 2.0 | 5.0 | 0.00 | 0.12 | 0.11 | 52 | 996.4 |
| 20260830231611 | 80 | 55 | 2.0 | 6.0 | 0.00 | 0.12 | 0.11 | 59 | 996.6 |
| 20260830230055 | 80 | 26 | 2.0 | 4.0 | 0.00 | 0.12 | 0.11 | 60 | 996.5 |
| 20260830224604 | 80 | 43 | 4.0 | 6.0 | 0.00 | 0.12 | 0.11 | 58 | 996.7 |
| 20260830223048 | 79 | 45 | 4.0 | 8.0 | 0.00 | 0.12 | 0.11 | 52 | 996.5 |
| 20260830221542 | 79 | 21 | 5.0 | 10.0 | 0.00 | 0.12 | 0.11 | 53 | 996.6 |
| 20260830220038 | 79 | 26 | 5.0 | 8.0 | 0.00 | 0.12 | 0.11 | 46 | 997.0 |
| 20260830214532 | 78 | 43 | 4.0 | 7.0 | 0.00 | 0.12 | 0.11 | 41 | 997.2 |
| 20260830213028 | 79 | 21 | 5.0 | 9.0 | 0.00 | 0.12 | 0.11 | 45 | 997.2 |
| 20260830211525 | 78 | 18 | 4.0 | 9.0 | 0.00 | 0.12 | 0.11 | 43 | 997.0 |
| 20260830210020 | 78 | 31 | 3.0 | 9.0 | 0.00 | 0.12 | 0.11 | 44 | 997.1 |
| 20260830204516 | 78 | 16 | 4.0 | 7.0 | 0.00 | 0.12 | 0.11 | 28 | 997.1 |
| 20260830203020 | 76 | 81 | 4.0 | 10.0 | 0.00 | 0.12 | 0.11 | 21 | 997.2 |
| 20260830201506 | 76 | 81 | 7.0 | 11.0 | 0.00 | 0.12 | 0.11 | 30 | 997.2 |
| 20260830200001 | 76 | 74 | 5.0 | 9.0 | 0.00 | 0.12 | 0.11 | 24 | 997.4 |
| 20260830194633 | 76 | 68 | 6.0 | 11.0 | 0.00 | 0.12 | 0.11 | 21 | 997.7 |
| 20260830193052 | 76 | 60 | 6.0 | 8.0 | 0.00 | 0.12 | 0.11 | 26 | 997.8 |
| 20260830191555 | 76 | 26 | 4.0 | 10.0 | 0.00 | 0.12 | 0.11 | 21 | 997.8 |
| 20260830190044 | 75 | 79 | 4.0 | 10.0 | 0.00 | 0.12 | 0.11 | 6 | 997.9 |
| 20260830184540 | 74 | 62 | 5.0 | 11.0 | 0.00 | 0.12 | 0.11 | 1 | 997.8 |
| 20260830183035 | 74 | 56 | 5.0 | 10.0 | 0.00 | 0.12 | 0.11 | 1 | 997.9 |
| 20260830181631 | 73 | 67 | 5.0 | 11.0 | 0.00 | 0.12 | 0.11 | 1 | 998.0 |
| 20260830180025 | 73 | 92 | 5.0 | 12.0 | 0.00 | 0.12 | 0.11 | 1 | 998.0 |
| 20260830174521 | 73 | 70 | 6.0 | 13.0 | 0.00 | 0.12 | 0.11 | 1 | 998.2 |
| 20260830173019 | 73 | 74 | 6.0 | 12.0 | 0.00 | 0.12 | 0.11 | 1 | 998.4 |
| 20260830171515 | 72 | 88 | 8.0 | 13.0 | 0.00 | 0.12 | 0.11 | 1 | 998.3 |
| 20260830170012 | 72 | 57 | 6.0 | 11.0 | 0.00 | 0.12 | 0.11 | 1 | 998.4 |
| 20260830164509 | 72 | 47 | 6.0 | 11.0 | 0.00 | 0.12 | 0.11 | 1 | 998.4 |
| 20260830163100 | 71 | 85 | 6.0 | 12.0 | 0.00 | 0.12 | 0.11 | 1 | 998.4 |
| 20260830161623 | 71 | 64 | 5.0 | 10.0 | 0.00 | 0.12 | 0.11 | 1 | 998.3 |
| 20260830160050 | 71 | 69 | 3.0 | 9.0 | 0.00 | 0.12 | 0.11 | 1 | 998.4 |
| 20260830154546 | 70 | 43 | 4.0 | 9.0 | 0.00 | 0.12 | 0.11 | 1 | 998.4 |
| 20260830153047 | 70 | 66 | 1.0 | 7.0 | 0.00 | 0.12 | 0.11 | 1 | 998.4 |
| 20260830151540 | 70 | 62 | 3.0 | 9.0 | 0.00 | 0.12 | 0.11 | 1 | 998.4 |
| 20260830150034 | 70 | 44 | 3.0 | 7.0 | 0.00 | 0.12 | 0.11 | 1 | 998.3 |
| 20260830144529 | 69 | 38 | 1.0 | 7.0 | 0.00 | 0.12 | 0.11 | 1 | 998.2 |
| 20260830143023 | 69 | 81 | 2.0 | 11.0 | 0.00 | 0.12 | 0.11 | 1 | 998.3 |
| 20260830141520 | 69 | 54 | 4.0 | 10.0 | 0.00 | 0.12 | 0.11 | 1 | 998.4 |
| 20260830140014 | 68 | 26 | 0.0 | 8.0 | 0.00 | 0.12 | 0.11 | 1 | 998.3 |
| 20260830134513 | 68 | 50 | 7.0 | 11.0 | 0.00 | 0.12 | 0.11 | 1 | 998.4 |
| 20260830133005 | 68 | 46 | 5.0 | 9.0 | 0.00 | 0.12 | 0.11 | 1 | 998.7 |
| 20260830131504 | 68 | 29 | 4.0 | 9.0 | 0.00 | 0.12 | 0.11 | 1 | 998.7 |
| 20260830130100 | 68 | 50 | 2.0 | 7.0 | 0.00 | 0.12 | 0.11 | 1 | 998.8 |
| 20260830124553 | 68 | 29 | 3.0 | 8.0 | 0.00 | 0.12 | 0.11 | 1 | 999.1 |
| 20260830123049 | 67 | 42 | 1.0 | 6.0 | 0.00 | 0.12 | 0.11 | 1 | 998.9 |
| 20260830121546 | 67 | 35 | 4.0 | 11.0 | 0.00 | 0.12 | 0.11 | 1 | 998.9 |
| 20260830120140 | 67 | 10 | 4.0 | 8.0 | 0.00 | 0.12 | 0.11 | 1 | 998.7 |
| 20260830114541 | 67 | 35 | 2.0 | 5.0 | 0.00 | 0.12 | 0.11 | 1 | 998.6 |
| 20260830113030 | 67 | 26 | 1.0 | 5.0 | 0.00 | 0.12 | 0.11 | 1 | 998.3 |
| 20260830111526 | 68 | 35 | 1.0 | 3.0 | 0.00 | 0.12 | 0.11 | 1 | 998.2 |
| 20260830110021 | 68 | 31 | 0.0 | 2.0 | 0.00 | 0.12 | 0.11 | 1 | 998.0 |
| 20260830104518 | 68 | 5 | 1.0 | 4.0 | 0.00 | 0.12 | 0.11 | 1 | 997.7 |
| 20260830103016 | 68 | 358 | 1.0 | 2.0 | 0.00 | 0.12 | 0.11 | 1 | 997.9 |
| 20260830101507 | 67 | 358 | 1.0 | 2.0 | 0.00 | 0.12 | 0.11 | 1 | 997.9 |
| 20260830100007 | 68 | 355 | 1.0 | 2.0 | 0.00 | 0.12 | 0.11 | 1 | 998.0 |
| 20260830094605 | 69 | 91 | 0.0 | 0.0 | 0.00 | 0.12 | 0.11 | 1 | 998.2 |
| 20260830093056 | 70 | 91 | 0.0 | 2.0 | 0.00 | 0.12 | 0.11 | 1 | 998.3 |
| 20260830091552 | 70 | 91 | 1.0 | 4.0 | 0.02 | 0.12 | 0.11 | 1 | 998.2 |
| 20260830090047 | 70 | 78 | 3.0 | 8.0 | 0.04 | 0.12 | 0.11 | 1 | 998.3 |
| 20260830084543 | 70 | 69 | 3.0 | 6.0 | 0.06 | 0.12 | 0.11 | 1 | 998.4 |
| 20260830083050 | 70 | 60 | 4.0 | 8.0 | 0.08 | 0.12 | 0.11 | 1 | 998.4 |
| 20260830081534 | 71 | 82 | 3.0 | 5.0 | 0.07 | 0.10 | 0.09 | 1 | 999.0 |
| 20260830080030 | 70 | 136 | 0.0 | 2.0 | 0.06 | 0.08 | 0.07 | 1 | 999.8 |
| 20260830074526 | 71 | 137 | 0.0 | 2.0 | 0.05 | 0.06 | 0.05 | 1 | 999.8 |
| 20260830073022 | 71 | 136 | 1.0 | 3.0 | 0.03 | 0.04 | 0.03 | 1 | 999.6 |
| 20260830071518 | 71 | 96 | 2.0 | 4.0 | 0.02 | 0.03 | 0.02 | 1 | 999.0 |
| 20260830070012 | 71 | 74 | 2.0 | 4.0 | 0.01 | 0.02 | 0.01 | 1 | 999.2 |
| 20260830064509 | 71 | 66 | 1.0 | 5.0 | 0.00 | 0.02 | 0.00 | 1 | 999.2 |
| 20260830063007 | 71 | 77 | 0.0 | 2.0 | 0.00 | 0.02 | 0.00 | 1 | 999.7 |
| 20260830061627 | 71 | 77 | 1.0 | 4.0 | 0.00 | 0.02 | 0.00 | 1 | 999.5 |
| 20260830060055 | 71 | 94 | 3.0 | 7.0 | 0.00 | 0.02 | 0.00 | 1 | 999.5 |
| 20260830054652 | 72 | 92 | 4.0 | 9.0 | 0.00 | 0.02 | 0.00 | 1 | 999.6 |
| 20260830053047 | 72 | 93 | 4.0 | 9.0 | 0.00 | 0.02 | 0.00 | 1 | 999.6 |
| 20260830051543 | 72 | 102 | 5.0 | 9.0 | 0.00 | 0.02 | 0.00 | 1 | 999.8 |
| 20260830050039 | 72 | 88 | 5.0 | 8.0 | 0.00 | 0.02 | 0.00 | 1 | 999.3 |
| 20260830044550 | 72 | 75 | 3.0 | 6.0 | 0.00 | 0.02 | 0.02 | 1 | 999.4 |
| 20260830043030 | 73 | 100 | 6.0 | 11.0 | 0.00 | 0.02 | 0.02 | 1 | 999.2 |
| 20260830041540 | 73 | 71 | 4.0 | 8.0 | 0.00 | 0.02 | 0.02 | 1 | 999.4 |
| 20260830040024 | 73 | 108 | 4.0 | 7.0 | 0.00 | 0.02 | 0.02 | 1 | 999.2 |
| 20260830034516 | 73 | 107 | 2.0 | 3.0 | 0.00 | 0.02 | 0.02 | 1 | 1000.0 |
| 20260830033011 | 73 | 55 | 1.0 | 4.0 | 0.00 | 0.02 | 0.02 | 1 | 1000.3 |
| 20260830031507 | 74 | 66 | 1.0 | 4.0 | 0.00 | 0.02 | 0.02 | 9 | 1000.5 |